• In Uzbekistan
  • List of Countries
  • For 7 days
  • Water Temperature
  • Satellite Maps
  • Weather Map
  • Weather Widgets
  • user-avatar
    Login

    Hourly Weather Manaus

    Today, 23 August, Wednesday

    Time Temperature Precipitation Wind Pressure Humidity
    00:00 +28°C° 0 mm 0 mps 754 mmHg 57%
    01:00 +29°C° 0 mm 1 mps 754 mmHg 58%
    02:00 +29°C° 0 mm 1 mps 754 mmHg 57%
    03:00 +28°C° 0 mm 1 mps 754 mmHg 60%
    04:00 +28°C° 0 mm 1 mps 754 mmHg 64%
    05:00 +27°C° 0 mm 1 mps 754 mmHg 68%
    06:00 +29°C° 0 mm 1 mps 755 mmHg 65%
    07:00 +30°C° 0 mm 1 mps 755 mmHg 62%
    08:00 +31°C° 0 mm 1 mps 755 mmHg 59%
    09:00 +34°C° 0 mm 1 mps 755 mmHg 51%
    10:00 +37°C° 0 mm 1 mps 755 mmHg 43%
    11:00 +37°C° 0 mm 0 mps 755 mmHg 35%
    12:00 +40°C° 0 mm 1 mps 754 mmHg 35%
    13:00 +39°C° 0 mm 1 mps 753 mmHg 36%
    14:00 +37°C° 0 mm 1 mps 752 mmHg 36%
    15:00 +36°C° 0 mm 1 mps 752 mmHg 40%
    16:00 +35°C° 0 mm 1 mps 752 mmHg 44%
    17:00 +34°C° 0 mm 1 mps 752 mmHg 47%
    18:00 +32°C° 0.1 mm 1 mps 752 mmHg 52%
    19:00 +31°C° 0.1 mm 1 mps 753 mmHg 56%
    20:00 +30°C° 0.1 mm 1 mps 753 mmHg 61%
    21:00 +29°C° 0.2 mm 1 mps 753 mmHg 63%
    22:00 +29°C° 0.2 mm 1 mps 754 mmHg 65%
    23:00 +28°C° 0.2 mm 1 mps 754 mmHg 68%

    Tomorrow, 24 August, Thursday

    Time Temperature Precipitation Wind Pressure Humidity
    00:00 +26°C° 0.1 mm 0 mps 754 mmHg 71%
    01:00 +25°C° 0.1 mm 0 mps 753 mmHg 74%
    02:00 +25°C° 0.1 mm 0 mps 753 mmHg 76%
    03:00 +24°C° 0 mm 0 mps 753 mmHg 78%
    04:00 +24°C° 0 mm 0 mps 753 mmHg 80%
    05:00 +24°C° 0 mm 0 mps 753 mmHg 81%
    06:00 +25°C° 0 mm 0 mps 754 mmHg 75%
    07:00 +27°C° 0 mm 0 mps 754 mmHg 69%
    08:00 +30°C° 0 mm 1 mps 755 mmHg 63%
    09:00 +32°C° 0 mm 1 mps 755 mmHg 55%
    10:00 +35°C° 0 mm 2 mps 755 mmHg 47%
    11:00 +37°C° 0 mm 2 mps 755 mmHg 39%
    12:00 +38°C° 0 mm 2 mps 754 mmHg 38%
    13:00 +38°C° 0 mm 2 mps 753 mmHg 38%
    14:00 +38°C° 0 mm 2 mps 752 mmHg 38%
    15:00 +36°C° 0 mm 1 mps 752 mmHg 40%
    16:00 +35°C° 0 mm 1 mps 752 mmHg 42%
    17:00 +35°C° 0 mm 1 mps 751 mmHg 44%
    18:00 +33°C° 0 mm 1 mps 752 mmHg 48%
    19:00 +32°C° 0 mm 1 mps 752 mmHg 52%
    20:00 +28°C° 0 mm 0 mps 753 mmHg 56%
    21:00 +30°C° 0.3 mm 1 mps 753 mmHg 62%
    22:00 +29°C° 0.3 mm 1 mps 754 mmHg 69%
    23:00 +28°C° 0.3 mm 1 mps 754 mmHg 75%

    Day after tomorrow, 25 August, Friday

    Time Temperature Precipitation Wind Pressure Humidity
    00:00 +27°C° 0.1 mm 1 mps 753 mmHg 76%
    01:00 +27°C° 0.1 mm 1 mps 753 mmHg 78%
    02:00 +26°C° 0.1 mm 1 mps 753 mmHg 80%
    03:00 +26°C° 0 mm 1 mps 753 mmHg 80%
    04:00 +26°C° 0 mm 1 mps 753 mmHg 81%
    05:00 +26°C° 0 mm 1 mps 753 mmHg 82%
    06:00 +27°C° 0 mm 1 mps 754 mmHg 77%
    07:00 +28°C° 0 mm 1 mps 754 mmHg 72%
    08:00 +30°C° 0 mm 1 mps 755 mmHg 68%
    09:00 +33°C° 0 mm 1 mps 755 mmHg 55%
    10:00 +36°C° 0 mm 2 mps 755 mmHg 43%
    11:00 +39°C° 0 mm 2 mps 755 mmHg 31%
    12:00 +40°C° 0 mm 2 mps 753 mmHg 28%
    13:00 +41°C° 0 mm 2 mps 752 mmHg 25%
    14:00 +42°C° 0 mm 2 mps 751 mmHg 22%
    15:00 +41°C° 0 mm 2 mps 751 mmHg 26%
    16:00 +39°C° 0 mm 1 mps 751 mmHg 29%
    17:00 +37°C° 0 mm 1 mps 751 mmHg 32%
    18:00 +35°C° 0 mm 1 mps 751 mmHg 36%
    19:00 +33°C° 0 mm 1 mps 752 mmHg 40%
    20:00 +32°C° 0 mm 1 mps 753 mmHg 44%
    21:00 +31°C° 0 mm 1 mps 753 mmHg 47%
    22:00 +31°C° 0 mm 1 mps 753 mmHg 49%
    23:00 +30°C° 0 mm 1 mps 753 mmHg 51%

    26 August, Saturday

    Time Temperature Precipitation Wind Pressure Humidity
    00:00 +30°C° 0 mm 1 mps 753 mmHg 52%
    01:00 +27°C° 0 mm 0 mps 752 mmHg 54%
    02:00 +27°C° 0 mm 0 mps 752 mmHg 56%
    03:00 +26°C° 0 mm 0 mps 752 mmHg 58%
    04:00 +26°C° 0 mm 0 mps 753 mmHg 60%
    05:00 +25°C° 0 mm 0 mps 753 mmHg 62%
    06:00 +29°C° 0 mm 1 mps 754 mmHg 59%
    07:00 +30°C° 0 mm 1 mps 754 mmHg 55%
    08:00 +32°C° 0 mm 1 mps 755 mmHg 51%
    09:00 +34°C° 0 mm 1 mps 755 mmHg 45%
    10:00 +37°C° 0 mm 2 mps 754 mmHg 40%
    11:00 +39°C° 0 mm 2 mps 754 mmHg 34%
    12:00 +39°C° 0 mm 1 mps 753 mmHg 34%
    13:00 +39°C° 0 mm 1 mps 752 mmHg 35%
    14:00 +35°C° 0 mm 0 mps 751 mmHg 36%
    15:00 +35°C° 0 mm 0 mps 751 mmHg 38%
    16:00 +34°C° 0 mm 0 mps 751 mmHg 40%
    17:00 +33°C° 0 mm 0 mps 751 mmHg 42%
    18:00 +34°C° 0.1 mm 1 mps 751 mmHg 47%
    19:00 +32°C° 0.1 mm 1 mps 752 mmHg 53%
    20:00 +31°C° 0.1 mm 1 mps 753 mmHg 58%
    21:00 +30°C° 0.1 mm 1 mps 753 mmHg 62%
    22:00 +29°C° 0.1 mm 1 mps 753 mmHg 66%
    23:00 +28°C° 0.1 mm 1 mps 754 mmHg 71%

    27 August, Sunday

    Time Temperature Precipitation Wind Pressure Humidity
    00:00 +28°C° 0.2 mm 1 mps 753 mmHg 72%
    01:00 +28°C° 0.2 mm 1 mps 753 mmHg 72%
    02:00 +28°C° 0.2 mm 1 mps 752 mmHg 73%
    03:00 +28°C° 0 mm 1 mps 752 mmHg 74%
    04:00 +25°C° 0 mm 0 mps 752 mmHg 74%
    05:00 +25°C° 0 mm 0 mps 753 mmHg 75%
    06:00 +26°C° 0 mm 0 mps 753 mmHg 71%
    07:00 +30°C° 0 mm 1 mps 754 mmHg 66%
    08:00 +31°C° 0 mm 1 mps 755 mmHg 62%
    09:00 +33°C° 0 mm 1 mps 754 mmHg 53%
    10:00 +36°C° 0 mm 1 mps 754 mmHg 43%
    11:00 +40°C° 0 mm 1 mps 754 mmHg 34%
    12:00 +40°C° 0 mm 1 mps 753 mmHg 33%
    13:00 +40°C° 0 mm 1 mps 752 mmHg 31%
    14:00 +40°C° 0 mm 1 mps 751 mmHg 30%
    15:00 +39°C° 0 mm 1 mps 751 mmHg 35%
    16:00 +36°C° 0 mm 1 mps 751 mmHg 39%
    17:00 +33°C° 0 mm 0 mps 750 mmHg 43%
    18:00 +32°C° 0 mm 0 mps 751 mmHg 45%
    19:00 +31°C° 0 mm 0 mps 751 mmHg 46%
    20:00 +30°C° 0 mm 0 mps 752 mmHg 48%
    21:00 +29°C° 0 mm 0 mps 752 mmHg 50%
    22:00 +29°C° 0 mm 0 mps 752 mmHg 51%
    23:00 +30°C° 0 mm 1 mps 752 mmHg 53%

    28 August, Monday

    Time Temperature Precipitation Wind Pressure Humidity
    00:00 +30°C° 0 mm 1 mps 752 mmHg 55%
    01:00 +29°C° 0 mm 1 mps 751 mmHg 57%
    02:00 +29°C° 0 mm 1 mps 751 mmHg 60%
    03:00 +29°C° 0.1 mm 1 mps 751 mmHg 64%
    04:00 +26°C° 0.1 mm 0 mps 752 mmHg 69%
    05:00 +25°C° 0.1 mm 0 mps 752 mmHg 73%
    06:00 +26°C° 0 mm 0 mps 753 mmHg 71%
    07:00 +29°C° 0 mm 1 mps 753 mmHg 69%
    08:00 +29°C° 0 mm 1 mps 754 mmHg 67%
    09:00 +32°C° 0 mm 1 mps 754 mmHg 56%
    10:00 +35°C° 0 mm 1 mps 754 mmHg 45%
    11:00 +39°C° 0 mm 2 mps 754 mmHg 35%
    12:00 +39°C° 0 mm 2 mps 753 mmHg 34%
    13:00 +39°C° 0 mm 1 mps 752 mmHg 34%
    14:00 +39°C° 0 mm 1 mps 751 mmHg 33%
    15:00 +37°C° 0 mm 1 mps 751 mmHg 37%
    16:00 +36°C° 0 mm 1 mps 751 mmHg 41%
    17:00 +35°C° 0 mm 1 mps 751 mmHg 45%
    18:00 +33°C° 0 mm 1 mps 751 mmHg 49%
    19:00 +30°C° 0 mm 0 mps 752 mmHg 53%
    20:00 +29°C° 0 mm 0 mps 752 mmHg 57%
    21:00 +30°C° 0 mm 1 mps 752 mmHg 59%
    22:00 +30°C° 0 mm 1 mps 752 mmHg 61%
    23:00 +30°C° 0 mm 1 mps 753 mmHg 63%
    Show more